iso_date,epoch_date,Year,Hour,Min,DOY,POS_DOY,Lat,Lon,BP,Ts,Ta,has_bp,has_ts,has_ta,BuoyID,Buoy_Type,Buoy_Owner,Logistics,Hemisphere
2015-07-11T00:30:14Z,1436574614,2015,0,30,192.021,192.021,71.07282,-164.60396,1024.0,-20.0,-999.0,yes,yes,no,300234062958970,unknown,unknown,unknown,North
2015-07-11T00:40:19Z,1436575219,2015,0,41,192.028,192.028,71.07267,-164.73456,1014.9,6.52,-999.0,yes,yes,no,300234062958970,unknown,unknown,unknown,North
2015-07-11T00:50:24Z,1436575824,2015,0,50,192.035,192.035,71.07336,-164.80353,1014.9,6.1,-999.0,yes,yes,no,300234062958970,unknown,unknown,unknown,North
2015-07-11T01:00:28Z,1436576429,2015,1,1,192.042,192.042,71.07443,-164.81201,1014.7,5.33,-999.0,yes,yes,no,300234062958970,unknown,unknown,unknown,North
2015-07-11T01:10:33Z,1436577034,2015,1,11,192.049,192.049,71.07635,-164.82153,1014.6,5.03,-999.0,yes,yes,no,300234062958970,unknown,unknown,unknown,North
2015-07-11T01:20:38Z,1436577638,2015,1,21,192.056,192.056,71.07725,-164.83075,1014.7,5.0,-999.0,yes,yes,no,300234062958970,unknown,unknown,unknown,North
2015-07-11T01:29:16Z,1436578157,2015,1,30,192.062,192.062,71.07813,-164.83966,1014.6,4.81,-999.0,yes,yes,no,300234062958970,unknown,unknown,unknown,North
2015-07-11T01:39:21Z,1436578762,2015,1,40,192.069,192.069,71.08682,-164.84578,1014.7,4.69,-999.0,yes,yes,no,300234062958970,unknown,unknown,unknown,North
2015-07-11T01:49:26Z,1436579366,2015,1,50,192.076,192.076,71.08779,-164.84749,1015.3,5.37,-999.0,yes,yes,no,300234062958970,unknown,unknown,unknown,North
2015-07-11T01:59:31Z,1436579971,2015,2,0,192.083,192.083,71.08745,-164.8457,1015.3,5.16,-999.0,yes,yes,no,300234062958970,unknown,unknown,unknown,North
2015-07-11T02:09:36Z,1436580576,2015,2,10,192.09,192.09,71.08714,-164.84421,1015.2,5.35,-999.0,yes,yes,no,300234062958970,unknown,unknown,unknown,North
2015-07-11T02:19:40Z,1436581181,2015,2,20,192.097,192.097,71.08678,-164.84372,1015.2,5.39,-999.0,yes,yes,no,300234062958970,unknown,unknown,unknown,North
2015-07-11T02:29:45Z,1436581786,2015,2,30,192.104,192.104,71.08647,-164.8437,1015.1,5.44,-999.0,yes,yes,no,300234062958970,unknown,unknown,unknown,North
2015-07-11T02:39:50Z,1436582390,2015,2,40,192.111,192.111,71.08614,-164.84375,1015.1,5.46,-999.0,yes,yes,no,300234062958970,unknown,unknown,unknown,North
2015-07-11T02:49:55Z,1436582995,2015,2,50,192.118,192.118,71.08584,-164.84398,1015.2,5.49,-999.0,yes,yes,no,300234062958970,unknown,unknown,unknown,North
2015-07-11T03:00:00Z,1436583600,2015,3,0,192.125,192.125,71.08556,-164.84422,1015.1,5.49,-999.0,yes,yes,no,300234062958970,unknown,unknown,unknown,North
2015-07-11T03:10:04Z,1436584205,2015,3,10,192.132,192.132,71.08533,-164.84459,1015.1,5.5,-999.0,yes,yes,no,300234062958970,unknown,unknown,unknown,North
2015-07-11T03:20:09Z,1436584810,2015,3,20,192.139,192.139,71.08511,-164.84499,1015.1,5.51,-999.0,yes,yes,no,300234062958970,unknown,unknown,unknown,North
2015-07-11T03:30:14Z,1436585414,2015,3,30,192.146,192.146,71.08484,-164.84521,1015.1,5.52,-999.0,yes,yes,no,300234062958970,unknown,unknown,unknown,North
2015-07-11T03:40:19Z,1436586019,2015,3,40,192.153,192.153,71.08453,-164.84561,1015.0,5.53,-999.0,yes,yes,no,300234062958970,unknown,unknown,unknown,North
2015-07-11T03:50:24Z,1436586624,2015,3,50,192.16,192.16,71.08421,-164.84602,1015.0,5.54,-999.0,yes,yes,no,300234062958970,unknown,unknown,unknown,North
2015-07-11T04:00:28Z,1436587229,2015,4,0,192.167,192.167,71.08385,-164.84615,1015.0,5.54,-999.0,yes,yes,no,300234062958970,unknown,unknown,unknown,North
2015-07-11T04:10:33Z,1436587834,2015,4,10,192.174,192.174,71.08347,-164.84653,1015.0,5.55,-999.0,yes,yes,no,300234062958970,unknown,unknown,unknown,North
2015-07-11T04:20:38Z,1436588438,2015,4,20,192.181,192.181,71.08303,-164.847,1014.9,5.55,-999.0,yes,yes,no,300234062958970,unknown,unknown,unknown,North
2015-07-11T04:30:43Z,1436589043,2015,4,30,192.188,192.188,71.0826,-164.84769,1014.9,5.56,-999.0,yes,yes,no,300234062958970,unknown,unknown,unknown,North
2015-07-11T04:39:21Z,1436589562,2015,4,40,192.194,192.194,71.08218,-164.84827,1014.9,5.57,-999.0,yes,yes,no,300234062958970,unknown,unknown,unknown,North
2015-07-11T04:49:26Z,1436590166,2015,4,50,192.201,192.201,71.0817,-164.84907,1014.8,5.58,-999.0,yes,yes,no,300234062958970,unknown,unknown,unknown,North
2015-07-11T04:59:31Z,1436590771,2015,5,0,192.208,192.208,71.08124,-164.84964,1014.7,5.59,-999.0,yes,yes,no,300234062958970,unknown,unknown,unknown,North
2015-07-11T05:09:36Z,1436591376,2015,5,10,192.215,192.215,71.08076,-164.8504,1014.8,5.6,-999.0,yes,yes,no,300234062958970,unknown,unknown,unknown,North
2015-07-11T05:19:40Z,1436591981,2015,5,20,192.222,192.222,71.08032,-164.85121,1014.8,5.61,-999.0,yes,yes,no,300234062958970,unknown,unknown,unknown,North
2015-07-11T05:29:45Z,1436592586,2015,5,30,192.229,192.229,71.07986,-164.852,1014.9,5.62,-999.0,yes,yes,no,300234062958970,unknown,unknown,unknown,North
2015-07-11T05:39:50Z,1436593190,2015,5,40,192.236,192.236,71.07935,-164.85266,1014.8,5.63,-999.0,yes,yes,no,300234062958970,unknown,unknown,unknown,North
2015-07-11T05:49:55Z,1436593795,2015,5,50,192.243,192.243,71.07899,-164.85361,1014.9,5.63,-999.0,yes,yes,no,300234062958970,unknown,unknown,unknown,North
2015-07-11T06:00:00Z,1436594400,2015,6,0,192.25,192.25,71.07855,-164.85475,1014.9,5.65,-999.0,yes,yes,no,300234062958970,unknown,unknown,unknown,North
2015-07-11T07:00:28Z,1436598029,2015,7,0,192.292,192.292,71.07597,-164.86179,1014.6,5.67,-999.0,yes,yes,no,300234062958970,unknown,unknown,unknown,North
2015-07-11T07:59:31Z,1436601571,2015,8,0,192.333,192.333,71.07424,-164.87201,1014.8,5.68,-999.0,yes,yes,no,300234062958970,unknown,unknown,unknown,North
2015-07-11T09:00:00Z,1436605200,2015,9,0,192.375,192.375,71.07335,-164.88263,1014.9,5.71,-999.0,yes,yes,no,300234062958970,unknown,unknown,unknown,North
2015-07-11T10:00:28Z,1436608829,2015,10,0,192.417,192.417,71.07291,-164.88901,1014.8,5.73,-999.0,yes,yes,no,300234062958970,unknown,unknown,unknown,North
2015-07-11T10:59:31Z,1436612371,2015,11,0,192.458,192.458,71.07307,-164.89455,1014.7,5.75,-999.0,yes,yes,no,300234062958970,unknown,unknown,unknown,North
2015-07-11T12:01:26Z,1436616086,2015,12,1,192.501,192.501,71.0733,-164.89885,1014.5,5.74,-999.0,yes,yes,no,300234062958970,unknown,unknown,unknown,North
2015-07-11T13:00:28Z,1436619629,2015,13,0,192.542,192.542,71.07326,-164.90212,1014.5,5.74,-999.0,yes,yes,no,300234062958970,unknown,unknown,unknown,North
2015-07-11T13:59:31Z,1436623171,2015,14,0,192.583,192.583,71.07295,-164.90573,1014.4,5.71,-999.0,yes,yes,no,300234062958970,unknown,unknown,unknown,North
2015-07-11T15:00:00Z,1436626800,2015,15,0,192.625,192.625,71.07122,-164.90967,1014.1,5.69,-999.0,yes,yes,no,300234062958970,unknown,unknown,unknown,North
2015-07-11T16:00:28Z,1436630429,2015,16,0,192.667,192.667,71.06967,-164.91406,1014.0,5.7,-999.0,yes,yes,no,300234062958970,unknown,unknown,unknown,North
2015-07-11T16:59:31Z,1436633971,2015,17,0,192.708,192.708,71.06789,-164.91989,1013.8,5.69,-999.0,yes,yes,no,300234062958970,unknown,unknown,unknown,North
2015-07-11T18:01:26Z,1436637686,2015,18,1,192.751,192.751,71.06528,-164.92767,1013.7,5.65,-999.0,yes,yes,no,300234062958970,unknown,unknown,unknown,North
2015-07-11T19:00:28Z,1436641229,2015,19,0,192.792,192.792,71.06294,-164.9379,1013.9,5.64,-999.0,yes,yes,no,300234062958970,unknown,unknown,unknown,North
2015-07-11T19:59:31Z,1436644771,2015,20,0,192.833,192.833,71.06158,-164.95038,1013.9,5.66,-999.0,yes,yes,no,300234062958970,unknown,unknown,unknown,North
2015-07-11T21:00:00Z,1436648400,2015,21,0,192.875,192.875,71.06111,-164.96239,1013.8,5.68,-999.0,yes,yes,no,300234062958970,unknown,unknown,unknown,North
2015-07-11T22:00:28Z,1436652029,2015,22,0,192.917,192.917,71.06131,-164.97365,1013.6,5.69,-999.0,yes,yes,no,300234062958970,unknown,unknown,unknown,North
2015-07-11T22:59:31Z,1436655571,2015,23,0,192.958,192.958,71.062,-164.98482,1013.4,5.91,-999.0,yes,yes,no,300234062958970,unknown,unknown,unknown,North
2015-07-12T00:00:00Z,1436659200,2015,0,0,193.0,193.0,71.06299,-164.9926,1013.4,5.97,-999.0,yes,yes,no,300234062958970,unknown,unknown,unknown,North
2015-07-12T01:00:28Z,1436662829,2015,1,0,193.042,193.042,71.06337,-164.99821,1013.4,5.99,-999.0,yes,yes,no,300234062958970,unknown,unknown,unknown,North
2015-07-12T01:59:31Z,1436666371,2015,2,0,193.083,193.083,71.06427,-165.0042,1013.1,6.01,-999.0,yes,yes,no,300234062958970,unknown,unknown,unknown,North
2015-07-12T03:00:00Z,1436670000,2015,3,0,193.125,193.125,71.06364,-165.0125,1012.7,6.0,-999.0,yes,yes,no,300234062958970,unknown,unknown,unknown,North
2015-07-12T04:00:28Z,1436673629,2015,4,0,193.167,193.167,71.06252,-165.0237,1012.7,5.89,-999.0,yes,yes,no,300234062958970,unknown,unknown,unknown,North
2015-07-12T04:59:31Z,1436677171,2015,5,0,193.208,193.208,71.06129,-165.03482,1012.6,5.8,-999.0,yes,yes,no,300234062958970,unknown,unknown,unknown,North
2015-07-12T06:00:00Z,1436680800,2015,6,0,193.25,193.25,71.06058,-165.04628,1012.7,5.74,-999.0,yes,yes,no,300234062958970,unknown,unknown,unknown,North
2015-07-12T07:00:28Z,1436684429,2015,7,0,193.292,193.292,71.0607,-165.06049,1012.6,5.47,-999.0,yes,yes,no,300234062958970,unknown,unknown,unknown,North
2015-07-12T07:59:31Z,1436687971,2015,8,0,193.333,193.333,71.06096,-165.07657,1012.9,5.44,-999.0,yes,yes,no,300234062958970,unknown,unknown,unknown,North
2015-07-12T09:00:00Z,1436691600,2015,9,0,193.375,193.375,71.06075,-165.09305,1013.1,5.4,-999.0,yes,yes,no,300234062958970,unknown,unknown,unknown,North
2015-07-12T10:00:28Z,1436695229,2015,10,0,193.417,193.417,71.06117,-165.10994,1013.0,5.43,-999.0,yes,yes,no,300234062958970,unknown,unknown,unknown,North
2015-07-12T10:59:31Z,1436698771,2015,11,0,193.458,193.458,71.06351,-165.12491,1012.9,5.46,-999.0,yes,yes,no,300234062958970,unknown,unknown,unknown,North
2015-07-12T12:00:00Z,1436702400,2015,12,0,193.5,193.5,71.06651,-165.1373,1012.9,5.41,-999.0,yes,yes,no,300234062958970,unknown,unknown,unknown,North
2015-07-12T13:00:28Z,1436706029,2015,13,0,193.542,193.542,71.06898,-165.14685,1012.9,5.37,-999.0,yes,yes,no,300234062958970,unknown,unknown,unknown,North
2015-07-12T13:59:31Z,1436709571,2015,14,0,193.583,193.583,71.07071,-165.15614,1012.9,5.37,-999.0,yes,yes,no,300234062958970,unknown,unknown,unknown,North
2015-07-12T15:00:00Z,1436713200,2015,15,0,193.625,193.625,71.07167,-165.16484,1012.9,5.36,-999.0,yes,yes,no,300234062958970,unknown,unknown,unknown,North
2015-07-12T16:00:28Z,1436716829,2015,16,1,193.667,193.667,71.07278,-165.1747,1012.9,5.36,-999.0,yes,yes,no,300234062958970,unknown,unknown,unknown,North
2015-07-12T16:59:31Z,1436720371,2015,17,0,193.708,193.708,71.07364,-165.18581,1013.0,5.37,-999.0,yes,yes,no,300234062958970,unknown,unknown,unknown,North
2015-07-12T18:00:00Z,1436724000,2015,18,0,193.75,193.75,71.07366,-165.19778,1013.1,5.36,-999.0,yes,yes,no,300234062958970,unknown,unknown,unknown,North
2015-07-12T19:00:28Z,1436727629,2015,19,0,193.792,193.792,71.07334,-165.21101,1013.2,5.37,-999.0,yes,yes,no,300234062958970,unknown,unknown,unknown,North
2015-07-12T19:59:31Z,1436731171,2015,20,0,193.833,193.833,71.0723,-165.22307,1013.3,5.45,-999.0,yes,yes,no,300234062958970,unknown,unknown,unknown,North
2015-07-12T21:01:26Z,1436734886,2015,21,1,193.876,193.876,71.07011,-165.23802,1013.2,5.41,-999.0,yes,yes,no,300234062958970,unknown,unknown,unknown,North
2015-07-12T22:00:28Z,1436738429,2015,22,0,193.917,193.917,71.06866,-165.25436,1013.1,5.5,-999.0,yes,yes,no,300234062958970,unknown,unknown,unknown,North
2015-07-12T22:59:31Z,1436741971,2015,23,0,193.958,193.958,71.06746,-165.26892,1013.0,5.55,-999.0,yes,yes,no,300234062958970,unknown,unknown,unknown,North
2015-07-13T00:01:26Z,1436745686,2015,0,1,194.001,194.001,71.06632,-165.28059,1012.9,5.63,-999.0,yes,yes,no,300234062958970,unknown,unknown,unknown,North
2015-07-13T01:00:28Z,1436749229,2015,1,1,194.042,194.042,71.06555,-165.29066,1013.0,5.65,-999.0,yes,yes,no,300234062958970,unknown,unknown,unknown,North
2015-07-13T01:59:31Z,1436752771,2015,2,0,194.083,194.083,71.06462,-165.30034,1012.8,5.65,-999.0,yes,yes,no,300234062958970,unknown,unknown,unknown,North
2015-07-13T03:00:00Z,1436756400,2015,3,0,194.125,194.125,71.0631,-165.31105,1012.7,5.6,-999.0,yes,yes,no,300234062958970,unknown,unknown,unknown,North
2015-07-13T04:00:28Z,1436760029,2015,4,1,194.167,194.167,71.06149,-165.32318,1012.6,5.59,-999.0,yes,yes,no,300234062958970,unknown,unknown,unknown,North
2015-07-13T04:59:31Z,1436763571,2015,5,0,194.208,194.208,71.06042,-165.33455,1012.6,5.57,-999.0,yes,yes,no,300234062958970,unknown,unknown,unknown,North
2015-07-13T06:00:00Z,1436767200,2015,6,0,194.25,194.25,71.05996,-165.34177,1012.6,5.47,-999.0,yes,yes,no,300234062958970,unknown,unknown,unknown,North
2015-07-13T07:00:28Z,1436770829,2015,7,0,194.292,194.292,71.05743,-165.3535,1012.5,5.51,-999.0,yes,yes,no,300234062958970,unknown,unknown,unknown,North
2015-07-13T07:59:31Z,1436774371,2015,8,0,194.333,194.333,71.05599,-165.36566,1012.7,5.55,-999.0,yes,yes,no,300234062958970,unknown,unknown,unknown,North
2015-07-13T09:00:00Z,1436778000,2015,9,0,194.375,194.375,71.05481,-165.37741,1012.7,5.57,-999.0,yes,yes,no,300234062958970,unknown,unknown,unknown,North
2015-07-13T10:00:28Z,1436781629,2015,10,1,194.417,194.417,71.05454,-165.39299,1012.7,5.57,-999.0,yes,yes,no,300234062958970,unknown,unknown,unknown,North
2015-07-13T10:59:31Z,1436785171,2015,11,0,194.458,194.458,71.05512,-165.40807,1012.8,5.57,-999.0,yes,yes,no,300234062958970,unknown,unknown,unknown,North
2015-07-13T12:00:00Z,1436788800,2015,12,0,194.5,194.5,71.05602,-165.42084,1012.8,5.56,-999.0,yes,yes,no,300234062958970,unknown,unknown,unknown,North
2015-07-13T13:00:28Z,1436792429,2015,13,0,194.542,194.542,71.05777,-165.43228,1012.8,5.56,-999.0,yes,yes,no,300234062958970,unknown,unknown,unknown,North
2015-07-13T14:00:57Z,1436796058,2015,14,1,194.584,194.584,71.0601,-165.44237,1012.7,5.55,-999.0,yes,yes,no,300234062958970,unknown,unknown,unknown,North
2015-07-13T15:00:00Z,1436799600,2015,15,0,194.625,194.625,71.06132,-165.45044,1012.6,5.55,-999.0,yes,yes,no,300234062958970,unknown,unknown,unknown,North
2015-07-13T16:00:28Z,1436803229,2015,16,0,194.667,194.667,71.06103,-165.45619,1012.6,5.51,-999.0,yes,yes,no,300234062958970,unknown,unknown,unknown,North
2015-07-13T16:59:31Z,1436806771,2015,17,0,194.708,194.708,71.06002,-165.46399,1012.7,5.55,-999.0,yes,yes,no,300234062958970,unknown,unknown,unknown,North
2015-07-13T18:01:26Z,1436810486,2015,18,1,194.751,194.751,71.05865,-165.47369,1012.7,5.56,-999.0,yes,yes,no,300234062958970,unknown,unknown,unknown,North
2015-07-13T19:00:28Z,1436814029,2015,19,0,194.792,194.792,71.05748,-165.4864,1013.0,5.57,-999.0,yes,yes,no,300234062958970,unknown,unknown,unknown,North
2015-07-13T19:59:31Z,1436817571,2015,20,0,194.833,194.833,71.05605,-165.50078,1012.9,5.58,-999.0,yes,yes,no,300234062958970,unknown,unknown,unknown,North
2015-07-13T21:01:26Z,1436821286,2015,21,1,194.876,194.876,71.05514,-165.51718,1012.9,5.59,-999.0,yes,yes,no,300234062958970,unknown,unknown,unknown,North
2015-07-13T22:00:28Z,1436824829,2015,22,0,194.917,194.917,71.05594,-165.52959,1013.0,5.61,-999.0,yes,yes,no,300234062958970,unknown,unknown,unknown,North
2015-07-13T22:59:31Z,1436828371,2015,23,0,194.958,194.958,71.05577,-165.54086,1013.1,5.62,-999.0,yes,yes,no,300234062958970,unknown,unknown,unknown,North
2015-07-14T00:00:00Z,1436832000,2015,0,0,195.0,195.0,71.05469,-165.55333,1013.1,5.67,-999.0,yes,yes,no,300234062958970,unknown,unknown,unknown,North
2015-07-14T01:00:28Z,1436835629,2015,1,1,195.042,195.042,71.05411,-165.56555,1013.1,5.82,-999.0,yes,yes,no,300234062958970,unknown,unknown,unknown,North
2015-07-14T01:59:31Z,1436839171,2015,2,0,195.083,195.083,71.05431,-165.57582,1013.0,5.88,-999.0,yes,yes,no,300234062958970,unknown,unknown,unknown,North
2015-07-14T03:00:00Z,1436842800,2015,3,0,195.125,195.125,71.05456,-165.58345,1013.3,5.93,-999.0,yes,yes,no,300234062958970,unknown,unknown,unknown,North
2015-07-14T04:00:28Z,1436846429,2015,4,0,195.167,195.167,71.05402,-165.59134,1013.2,5.96,-999.0,yes,yes,no,300234062958970,unknown,unknown,unknown,North
2015-07-14T04:59:31Z,1436849971,2015,5,0,195.208,195.208,71.05338,-165.59885,1013.3,5.96,-999.0,yes,yes,no,300234062958970,unknown,unknown,unknown,North
2015-07-14T06:00:00Z,1436853600,2015,6,0,195.25,195.25,71.05216,-165.60486,1013.2,5.97,-999.0,yes,yes,no,300234062958970,unknown,unknown,unknown,North
2015-07-14T07:00:28Z,1436857229,2015,7,1,195.292,195.292,71.05134,-165.61432,1013.2,5.95,-999.0,yes,yes,no,300234062958970,unknown,unknown,unknown,North
2015-07-14T08:00:57Z,1436860858,2015,8,1,195.334,195.334,71.05078,-165.62393,1013.3,5.93,-999.0,yes,yes,no,300234062958970,unknown,unknown,unknown,North
2015-07-14T09:00:00Z,1436864400,2015,9,0,195.375,195.375,71.05003,-165.63344,1013.4,5.91,-999.0,yes,yes,no,300234062958970,unknown,unknown,unknown,North
2015-07-14T10:00:28Z,1436868029,2015,10,0,195.417,195.417,71.04918,-165.64264,1013.3,5.9,-999.0,yes,yes,no,300234062958970,unknown,unknown,unknown,North
2015-07-14T10:59:31Z,1436871571,2015,11,0,195.458,195.458,71.0494,-165.6505,1013.2,5.9,-999.0,yes,yes,no,300234062958970,unknown,unknown,unknown,North
2015-07-14T12:01:26Z,1436875286,2015,12,1,195.501,195.501,71.05024,-165.65752,1013.2,5.88,-999.0,yes,yes,no,300234062958970,unknown,unknown,unknown,North
2015-07-14T13:00:28Z,1436878829,2015,13,0,195.542,195.542,71.05115,-165.66135,1013.2,5.86,-999.0,yes,yes,no,300234062958970,unknown,unknown,unknown,North
2015-07-14T13:59:31Z,1436882371,2015,14,0,195.583,195.583,71.05092,-165.66286,1013.1,5.8,-999.0,yes,yes,no,300234062958970,unknown,unknown,unknown,North
2015-07-14T15:00:00Z,1436886000,2015,15,0,195.625,195.625,71.04958,-165.66115,1013.1,5.74,-999.0,yes,yes,no,300234062958970,unknown,unknown,unknown,North
2015-07-14T16:00:28Z,1436889629,2015,16,0,195.667,195.667,71.04806,-165.66037,1013.0,5.75,-999.0,yes,yes,no,300234062958970,unknown,unknown,unknown,North
2015-07-14T16:59:31Z,1436893171,2015,17,0,195.708,195.708,71.04632,-165.6613,1012.7,5.77,-999.0,yes,yes,no,300234062958970,unknown,unknown,unknown,North
2015-07-14T18:00:00Z,1436896800,2015,18,0,195.75,195.75,71.04438,-165.66319,1012.6,5.78,-999.0,yes,yes,no,300234062958970,unknown,unknown,unknown,North
2015-07-14T19:00:28Z,1436900429,2015,19,0,195.792,195.792,71.04224,-165.6671,1012.4,5.8,-999.0,yes,yes,no,300234062958970,unknown,unknown,unknown,North
2015-07-14T20:00:57Z,1436904058,2015,20,1,195.834,195.834,71.04038,-165.67127,1012.4,5.81,-999.0,yes,yes,no,300234062958970,unknown,unknown,unknown,North
2015-07-14T21:00:00Z,1436907600,2015,21,0,195.875,195.875,71.0383,-165.67636,1012.3,5.83,-999.0,yes,yes,no,300234062958970,unknown,unknown,unknown,North
2015-07-14T22:00:28Z,1436911229,2015,22,0,195.917,195.917,71.03601,-165.68231,1012.3,5.84,-999.0,yes,yes,no,300234062958970,unknown,unknown,unknown,North
2015-07-14T22:59:31Z,1436914771,2015,23,0,195.958,195.958,71.03462,-165.68909,1012.3,5.83,-999.0,yes,yes,no,300234062958970,unknown,unknown,unknown,North
2015-07-15T00:00:00Z,1436918400,2015,0,0,196.0,196.0,71.03364,-165.69595,1012.2,5.85,-999.0,yes,yes,no,300234062958970,unknown,unknown,unknown,North
2015-07-15T01:00:28Z,1436922029,2015,1,0,196.042,196.042,71.03319,-165.70085,1012.2,5.88,-999.0,yes,yes,no,300234062958970,unknown,unknown,unknown,North
2015-07-15T01:59:31Z,1436925571,2015,2,0,196.083,196.083,71.03236,-165.70319,1012.1,5.91,-999.0,yes,yes,no,300234062958970,unknown,unknown,unknown,North
2015-07-15T03:00:00Z,1436929200,2015,3,0,196.125,196.125,71.03098,-165.70798,1011.9,5.92,-999.0,yes,yes,no,300234062958970,unknown,unknown,unknown,North
2015-07-15T04:00:28Z,1436932829,2015,4,0,196.167,196.167,71.02962,-165.71233,1011.8,5.93,-999.0,yes,yes,no,300234062958970,unknown,unknown,unknown,North
2015-07-15T04:59:31Z,1436936371,2015,5,0,196.208,196.208,71.02873,-165.71666,1011.6,5.94,-999.0,yes,yes,no,300234062958970,unknown,unknown,unknown,North
2015-07-15T06:01:26Z,1436940086,2015,6,1,196.251,196.251,71.02725,-165.72102,1011.7,5.94,-999.0,yes,yes,no,300234062958970,unknown,unknown,unknown,North
2015-07-15T07:00:28Z,1436943629,2015,7,0,196.292,196.292,71.02594,-165.72635,1011.7,5.93,-999.0,yes,yes,no,300234062958970,unknown,unknown,unknown,North
2015-07-15T07:59:31Z,1436947171,2015,8,0,196.333,196.333,71.02493,-165.732,1011.8,5.91,-999.0,yes,yes,no,300234062958970,unknown,unknown,unknown,North
2015-07-15T09:00:00Z,1436950800,2015,9,0,196.375,196.375,71.02379,-165.73906,1012.0,5.91,-999.0,yes,yes,no,300234062958970,unknown,unknown,unknown,North
2015-07-15T10:00:28Z,1436954429,2015,10,0,196.417,196.417,71.02314,-165.74451,1011.8,5.9,-999.0,yes,yes,no,300234062958970,unknown,unknown,unknown,North
2015-07-15T10:59:31Z,1436957971,2015,11,0,196.458,196.458,71.02251,-165.74767,1011.7,5.92,-999.0,yes,yes,no,300234062958970,unknown,unknown,unknown,North
2015-07-15T12:00:00Z,1436961600,2015,12,0,196.5,196.5,71.02166,-165.75211,1011.7,5.93,-999.0,yes,yes,no,300234062958970,unknown,unknown,unknown,North
2015-07-15T13:00:28Z,1436965229,2015,13,0,196.542,196.542,71.02145,-165.75708,1011.6,5.94,-999.0,yes,yes,no,300234062958970,unknown,unknown,unknown,North
2015-07-15T13:59:31Z,1436968771,2015,14,0,196.583,196.583,71.02153,-165.75981,1011.6,5.96,-999.0,yes,yes,no,300234062958970,unknown,unknown,unknown,North
2015-07-15T15:00:00Z,1436972400,2015,15,0,196.625,196.625,71.02132,-165.76486,1011.7,5.98,-999.0,yes,yes,no,300234062958970,unknown,unknown,unknown,North
2015-07-15T16:00:28Z,1436976029,2015,16,0,196.667,196.667,71.02145,-165.77017,1011.6,6.02,-999.0,yes,yes,no,300234062958970,unknown,unknown,unknown,North
2015-07-15T16:59:31Z,1436979571,2015,17,0,196.708,196.708,71.02185,-165.77539,1011.7,6.02,-999.0,yes,yes,no,300234062958970,unknown,unknown,unknown,North
2015-07-15T18:00:00Z,1436983200,2015,18,0,196.75,196.75,71.02211,-165.78017,1011.6,6.07,-999.0,yes,yes,no,300234062958970,unknown,unknown,unknown,North
2015-07-15T19:00:28Z,1436986829,2015,19,0,196.792,196.792,71.02189,-165.7849,1011.6,6.13,-999.0,yes,yes,no,300234062958970,unknown,unknown,unknown,North
2015-07-15T19:59:31Z,1436990371,2015,20,0,196.833,196.833,71.02123,-165.79102,1011.3,6.13,-999.0,yes,yes,no,300234062958970,unknown,unknown,unknown,North
2015-07-15T21:00:00Z,1436994000,2015,21,0,196.875,196.875,71.021,-165.7989,1011.3,6.14,-999.0,yes,yes,no,300234062958970,unknown,unknown,unknown,North
2015-07-15T22:00:28Z,1436997629,2015,22,1,196.917,196.917,71.02121,-165.80644,1011.4,6.14,-999.0,yes,yes,no,300234062958970,unknown,unknown,unknown,North
2015-07-15T22:59:31Z,1437001171,2015,23,0,196.958,196.958,71.02069,-165.81683,1011.3,6.15,-999.0,yes,yes,no,300234062958970,unknown,unknown,unknown,North
2015-07-16T00:00:00Z,1437004800,2015,0,0,197.0,197.0,71.01954,-165.82794,1011.4,6.15,-999.0,yes,yes,no,300234062958970,unknown,unknown,unknown,North
2015-07-16T01:00:28Z,1437008429,2015,1,0,197.042,197.042,71.0209,-165.83765,1011.3,6.14,-999.0,yes,yes,no,300234062958970,unknown,unknown,unknown,North
2015-07-16T01:59:31Z,1437011971,2015,2,0,197.083,197.083,71.02175,-165.84824,1011.3,6.14,-999.0,yes,yes,no,300234062958970,unknown,unknown,unknown,North
2015-07-16T03:00:00Z,1437015600,2015,3,0,197.125,197.125,71.02341,-165.85759,1011.2,6.15,-999.0,yes,yes,no,300234062958970,unknown,unknown,unknown,North
2015-07-16T04:00:28Z,1437019229,2015,4,0,197.167,197.167,71.02446,-165.86649,1011.1,6.16,-999.0,yes,yes,no,300234062958970,unknown,unknown,unknown,North
2015-07-16T04:59:31Z,1437022771,2015,5,0,197.208,197.208,71.02561,-165.87456,1011.1,6.16,-999.0,yes,yes,no,300234062958970,unknown,unknown,unknown,North
2015-07-16T06:00:00Z,1437026400,2015,6,0,197.25,197.25,71.02628,-165.884,1011.1,6.15,-999.0,yes,yes,no,300234062958970,unknown,unknown,unknown,North
2015-07-16T07:00:28Z,1437030029,2015,7,1,197.292,197.292,71.02689,-165.89545,1011.0,6.15,-999.0,yes,yes,no,300234062958970,unknown,unknown,unknown,North
2015-07-16T07:59:31Z,1437033571,2015,8,0,197.333,197.333,71.02763,-165.90822,1010.9,6.15,-999.0,yes,yes,no,300234062958970,unknown,unknown,unknown,North